Change the Weather History Date:

Tuesday, November 5, 2013

  Actual Average Record
Temperature  
Mean Temperature 62 °F -  
Max Temperature 73 °F 75 °F 89 °F (2007)
Min Temperature 51 °F 51 °F 41 °F (2002)
Degree Days  
Heating Degree Days 3    
Growing Degree Days 12 (Base 50)    
Moisture  
Dew Point 46 °F    
Average Humidity 66    
Maximum Humidity 88    
Minimum Humidity 31    
Precipitation  
Precipitation 0.00 in - - ()
Sea Level Pressure  
Sea Level Pressure 30.01 in    
Wind  
Wind Speed 2 mph (SSE)    
Max Wind Speed 9 mph    
Max Gust Speed -    
Visibility 12 miles    
Events      
Averages and records for this station are not official NWS values.
T = Trace of Precipitation, MM = Missing Value Source: NWS Daily Summary

Daily Weather History Graph

Daily Weather History Graph

Search for Another Location

Airport or City:

Trip Planner

Search our weather history database for the weather conditions in past years. The results will help you decide how hot, cold, wet, or windy it might be!

Date:

Astronomy

Nov. 05, 2013 Rise Set
Actual Time 6:48 AM MST 5:31 PM MST
Civil Twilight 6:23 AM MST 5:56 PM MST
Nautical Twilight 5:53 AM MST 6:26 PM MST
Astronomical Twilight 5:24 AM MST 6:55 PM MST
Moon 9:03 AM MST (11/5) 7:40 PM MST (11/5)
Length of Visible Light 11h 33m
Length of Day
10h 42m
Waxing Crescent, 7% of the Moon is Illuminated
Nov 5
Waxing Crescent
Nov 9
First Quarter
Nov 17
Full
Nov 25
Last Quarter
Dec 2
New

Hourly Weather History & Observations

Time (MST) Temp. Dew Point Humidity Pressure Visibility Wind Dir Wind Speed Gust Speed Precip Events Conditions
12:15 AM 57.2 °F 50.0 °F 77% 29.86 in 10.0 mi Calm Calm - N/A   Scattered Clouds
12:35 AM 57.2 °F 51.8 °F 82% 29.87 in 10.0 mi Calm Calm - N/A   Clear
12:55 AM 55.4 °F 50.0 °F 82% 29.87 in 10.0 mi Calm Calm - N/A   Clear
1:15 AM 57.2 °F 50.0 °F 77% 29.87 in 10.0 mi Calm Calm - N/A   Clear
1:35 AM 55.4 °F 50.0 °F 82% 29.87 in 10.0 mi Calm Calm - N/A   Clear
1:55 AM 55.4 °F 50.0 °F 82% 29.87 in 10.0 mi Calm Calm - N/A   Clear
2:15 AM 51.8 °F 48.2 °F 88% 29.87 in 10.0 mi SSE 9.2 mph - N/A   Clear
2:35 AM 55.4 °F 50.0 °F 82% 29.88 in 10.0 mi ESE 5.8 mph - N/A   Mostly Cloudy
2:55 AM 55.4 °F 50.0 °F 82% 29.88 in 10.0 mi ESE 3.5 mph - N/A   Overcast
3:15 AM 55.4 °F 50.0 °F 82% 29.89 in 10.0 mi East 3.5 mph - N/A   Scattered Clouds
3:35 AM 53.6 °F 50.0 °F 88% 29.89 in 10.0 mi East 5.8 mph - N/A   Clear
3:55 AM 55.4 °F 50.0 °F 82% 29.90 in 10.0 mi Calm Calm - N/A   Clear
4:15 AM 51.8 °F 46.4 °F 82% 29.90 in 10.0 mi Calm Calm - N/A   Clear
4:35 AM 51.8 °F 48.2 °F 88% 29.92 in 10.0 mi Calm Calm - N/A   Clear
4:47 AM 53.6 °F 48.2 °F 82% 29.92 in 20.0 mi Variable 3.5 mph - N/A   Scattered Clouds
4:55 AM 51.8 °F 48.2 °F 88% 29.93 in 10.0 mi West 3.5 mph - N/A   Clear
5:15 AM 53.6 °F 48.2 °F 82% 29.93 in 10.0 mi West 3.5 mph - N/A   Clear
5:35 AM 51.8 °F 46.4 °F 82% 29.94 in 10.0 mi Calm Calm - N/A   Clear
5:47 AM 55.4 °F 48.2 °F 77% 29.95 in 20.0 mi Variable 3.5 mph - N/A   Scattered Clouds
6:55 AM 53.6 °F 50.0 °F 88% 29.98 in 35.0 mi SE 4.6 mph - N/A   Scattered Clouds
7:47 AM 53.6 °F 50.0 °F 88% 30.00 in 35.0 mi ESE 5.8 mph - N/A   Scattered Clouds
8:57 AM 57.2 °F 51.8 °F 82% 30.02 in 35.0 mi ESE 4.6 mph - N/A   Scattered Clouds
9:50 AM 62.6 °F 53.6 °F 72% 30.04 in 35.0 mi Calm Calm - N/A   Scattered Clouds
10:47 AM 64.4 °F 48.2 °F 56% 30.05 in 35.0 mi SSE 3.5 mph - N/A   Scattered Clouds
11:50 AM 68.0 °F 48.2 °F 49% 30.04 in 35.0 mi WSW 5.8 mph - N/A   Scattered Clouds
12:50 PM 69.8 °F 44.6 °F 40% 30.02 in 35.0 mi West 4.6 mph - N/A   Scattered Clouds
1:47 PM 71.6 °F 42.8 °F 35% 30.02 in 35.0 mi West 6.9 mph - N/A   Scattered Clouds
2:47 PM 73.4 °F 42.8 °F 33% 30.02 in 35.0 mi SW 6.9 mph - N/A   Scattered Clouds
3:47 PM 73.4 °F 41.0 °F 31% 30.02 in 35.0 mi WSW 3.5 mph - N/A   Scattered Clouds
4:47 PM 73.4 °F 41.0 °F 31% 30.03 in 35.0 mi NW 9.2 mph - N/A   Partly Cloudy
5:47 PM 71.6 °F 39.2 °F 31% 30.05 in 20.0 mi WNW 6.9 mph - N/A   Partly Cloudy
6:47 PM 66.2 °F 42.8 °F 43% 30.07 in 20.0 mi West 5.8 mph - N/A   Partly Cloudy
7:47 PM 64.4 °F 44.6 °F 49% 30.09 in 20.0 mi West 5.8 mph - N/A   Partly Cloudy
7:55 PM 64.4 °F 44.6 °F 49% 30.09 in 10.0 mi West 3.5 mph - N/A   Clear
8:15 PM 64.4 °F 44.6 °F 49% 30.10 in 10.0 mi Calm Calm - N/A   Clear
8:35 PM 62.6 °F 42.8 °F 48% 30.11 in 10.0 mi Calm Calm - N/A   Clear
8:47 PM 59.0 °F 44.6 °F 59% 30.11 in 20.0 mi Calm Calm - N/A   Clear
8:55 PM 60.8 °F 44.6 °F 55% 30.11 in 10.0 mi Calm Calm - N/A   Clear
9:15 PM 59.0 °F 42.8 °F 55% 30.12 in 10.0 mi Calm Calm - N/A   Clear
9:35 PM 59.0 °F 44.6 °F 59% 30.12 in 10.0 mi Calm Calm - N/A   Clear
9:47 PM 60.8 °F 44.6 °F 55% 30.13 in 20.0 mi ENE 3.5 mph - N/A   Clear
9:55 PM 59.0 °F 42.8 °F 55% 30.13 in 10.0 mi ENE 4.6 mph - N/A   Clear
10:15 PM 57.2 °F 42.8 °F 59% 30.14 in 10.0 mi East 4.6 mph - N/A   Clear
10:35 PM 55.4 °F 44.6 °F 67% 30.14 in 10.0 mi Calm Calm - N/A   Clear
10:47 PM 55.4 °F 46.4 °F 72% 30.14 in 20.0 mi Calm Calm - N/A   Clear
10:55 PM 55.4 °F 44.6 °F 67% 30.14 in 10.0 mi Calm Calm - N/A   Clear
11:35 PM 53.6 °F 42.8 °F 67% 30.14 in 10.0 mi SE 3.5 mph - N/A   Clear
11:47 PM 53.6 °F 42.8 °F 67% 30.15 in 20.0 mi East 4.6 mph - N/A   Clear
11:55 PM 51.8 °F 42.8 °F 71% 30.15 in 10.0 mi ESE 4.6 mph - N/A   Clear